| time (UTC) | temp F | wind direction | speed MPH | gust MPH | rain 1hr in | rain 24hr in | rain mn in | humidity % | barometer mb |
| 20260508012842 | 53 | 50 | 4.0 | 7.0 | 0.00 | 0.00 | 0.00 | 85 | 1017.9 |
| 20260508012341 | 53 | 71 | 4.0 | 7.0 | 0.00 | 0.00 | 0.00 | 85 | 1017.8 |
| 20260508011921 | 53 | 70 | 4.0 | 7.0 | 0.00 | 0.00 | 0.00 | 85 | 1017.9 |
| 20260508010840 | 53 | 50 | 3.0 | 6.0 | 0.00 | 0.00 | 0.00 | 85 | 1017.8 |
| 20260508010343 | 53 | 76 | 4.0 | 7.0 | 0.00 | 0.00 | 0.00 | 84 | 1017.9 |
| 20260508005839 | 53 | 57 | 4.0 | 7.0 | 0.00 | 0.00 | 0.00 | 84 | 1017.9 |
| 20260508005339 | 53 | 69 | 4.0 | 7.0 | 0.00 | 0.00 | 0.00 | 84 | 1017.8 |
| 20260508004840 | 53 | 61 | 4.0 | 8.0 | 0.00 | 0.00 | 0.00 | 84 | 1018.0 |
| 20260508004338 | 53 | 66 | 4.0 | 8.0 | 0.00 | 0.00 | 0.00 | 84 | 1018.0 |
| 20260508003841 | 53 | 62 | 3.0 | 6.0 | 0.00 | 0.00 | 0.00 | 84 | 1017.9 |
| 20260508002847 | 53 | 62 | 3.0 | 6.0 | 0.00 | 0.00 | 0.00 | 83 | 1018.0 |
| 20260508002438 | 53 | 67 | 3.0 | 6.0 | 0.00 | 0.00 | 0.00 | 83 | 1018.0 |
| 20260508001338 | 53 | 64 | 3.0 | 6.0 | 0.00 | 0.00 | 0.00 | 82 | 1018.0 |
| 20260508000841 | 53 | 62 | 3.0 | 6.0 | 0.00 | 0.00 | 0.00 | 81 | 1017.9 |
| 20260508000338 | 54 | 62 | 3.0 | 6.0 | 0.00 | 0.00 | 0.00 | 81 | 1017.9 |
| 20260507235838 | 54 | 67 | 3.0 | 6.0 | 0.00 | 0.00 | 0.00 | 81 | 1018.0 |
| 20260507235338 | 54 | 66 | 3.0 | 6.0 | 0.00 | 0.00 | 0.00 | 80 | 1018.0 |
| 20260507234836 | 54 | 56 | 3.0 | 6.0 | 0.00 | 0.00 | 0.00 | 80 | 1018.0 |
| 20260507234411 | 54 | 59 | 3.0 | 6.0 | 0.00 | 0.00 | 0.00 | 80 | 1018.1 |
| 20260507233337 | 54 | 50 | 3.0 | 6.0 | 0.00 | 0.00 | 0.00 | 79 | 1018.2 |
| 20260507232838 | 54 | 50 | 3.0 | 4.0 | 0.00 | 0.00 | 0.00 | 78 | 1018.2 |
| 20260507232337 | 54 | 63 | 2.0 | 4.0 | 0.00 | 0.00 | 0.00 | 78 | 1018.1 |
| 20260507231911 | 54 | 63 | 2.0 | 3.0 | 0.00 | 0.00 | 0.00 | 77 | 1018.1 |
| 20260507230836 | 55 | 63 | 2.0 | 4.0 | 0.00 | 0.00 | 0.00 | 76 | 1018.1 |
| 20260507230344 | 55 | 73 | 3.0 | 4.0 | 0.00 | 0.00 | 0.00 | 76 | 1018.2 |
| 20260507225837 | 55 | 68 | 2.0 | 4.0 | 0.00 | 0.00 | 0.00 | 75 | 1018.2 |
| 20260507225332 | 55 | 58 | 3.0 | 4.0 | 0.00 | 0.00 | 0.00 | 75 | 1018.2 |
| 20260507224915 | 55 | 50 | 3.0 | 6.0 | 0.00 | 0.00 | 0.00 | 75 | 1018.2 |
| 20260507223831 | 55 | 62 | 4.0 | 7.0 | 0.00 | 0.00 | 0.00 | 74 | 1018.2 |
| 20260507223332 | 55 | 57 | 3.0 | 8.0 | 0.00 | 0.00 | 0.00 | 75 | 1018.2 |
| 20260507222832 | 55 | 357 | 3.0 | 8.0 | 0.00 | 0.00 | 0.00 | 75 | 1018.2 |
| 20260507222333 | 55 | 38 | 2.0 | 8.0 | 0.00 | 0.00 | 0.00 | 75 | 1018.2 |
| 20260507221909 | 55 | 19 | 2.0 | 5.0 | 0.00 | 0.00 | 0.00 | 75 | 1018.2 |
| 20260507220830 | 55 | 56 | 2.0 | 5.0 | 0.00 | 0.00 | 0.00 | 75 | 1018.2 |
| 20260507220331 | 55 | 33 | 2.0 | 5.0 | 0.00 | 0.00 | 0.00 | 75 | 1018.2 |
| 20260507215834 | 56 | 46 | 2.0 | 4.0 | 0.00 | 0.00 | 0.00 | 75 | 1018.0 |
| 20260507215330 | 56 | 36 | 2.0 | 6.0 | 0.00 | 0.00 | 0.00 | 75 | 1018.1 |
| 20260507214832 | 56 | 72 | 2.0 | 6.0 | 0.00 | 0.00 | 0.00 | 75 | 1018.0 |
| 20260507214332 | 56 | 39 | 2.0 | 5.0 | 0.00 | 0.00 | 0.00 | 74 | 1018.1 |
| 20260507213923 | 56 | 355 | 3.0 | 7.0 | 0.00 | 0.00 | 0.00 | 74 | 1017.9 |
| 20260507212332 | 56 | 54 | 2.0 | 6.0 | 0.00 | 0.00 | 0.00 | 73 | 1018.0 |
| 20260507211831 | 56 | 48 | 3.0 | 6.0 | 0.00 | 0.00 | 0.00 | 73 | 1018.0 |
| 20260507211332 | 56 | 48 | 3.0 | 6.0 | 0.00 | 0.00 | 0.00 | 73 | 1018.0 |
| 20260507210853 | 56 | 62 | 3.0 | 6.0 | 0.00 | 0.00 | 0.00 | 73 | 1018.1 |
| 20260507205826 | 56 | 68 | 2.0 | 6.0 | 0.00 | 0.00 | 0.00 | 73 | 1018.0 |
| 20260507205322 | 56 | 62 | 2.0 | 6.0 | 0.00 | 0.00 | 0.00 | 73 | 1018.0 |
| 20260507204823 | 56 | 44 | 2.0 | 6.0 | 0.00 | 0.00 | 0.00 | 73 | 1017.9 |
| 20260507204330 | 56 | 44 | 3.0 | 4.0 | 0.00 | 0.00 | 0.00 | 73 | 1017.8 |
| 20260507203822 | 56 | 60 | 3.0 | 4.0 | 0.00 | 0.00 | 0.00 | 73 | 1017.8 |
| 20260507203352 | 56 | 68 | 3.0 | 6.0 | 0.00 | 0.00 | 0.00 | 73 | 1017.7 |
| 20260507202322 | 56 | 67 | 3.0 | 6.0 | 0.00 | 0.00 | 0.00 | 72 | 1017.8 |
| 20260507201821 | 56 | 67 | 3.0 | 6.0 | 0.00 | 0.00 | 0.00 | 72 | 1017.7 |
| 20260507201323 | 56 | 72 | 3.0 | 7.0 | 0.00 | 0.00 | 0.00 | 72 | 1017.7 |
| 20260507200821 | 56 | 62 | 4.0 | 7.0 | 0.00 | 0.00 | 0.00 | 71 | 1017.6 |
| 20260507200320 | 56 | 64 | 3.0 | 7.0 | 0.00 | 0.00 | 0.00 | 71 | 1017.6 |
| 20260507195844 | 56 | 42 | 3.0 | 6.0 | 0.00 | 0.00 | 0.00 | 71 | 1017.6 |
| 20260507194821 | 56 | 75 | 3.0 | 7.0 | 0.00 | 0.00 | 0.00 | 71 | 1017.5 |
| 20260507194318 | 57 | 58 | 3.0 | 7.0 | 0.00 | 0.00 | 0.00 | 71 | 1017.5 |
| 20260507193815 | 57 | 58 | 4.0 | 7.0 | 0.00 | 0.00 | 0.00 | 70 | 1017.4 |
| 20260507193316 | 57 | 58 | 4.0 | 8.0 | 0.00 | 0.00 | 0.00 | 70 | 1017.3 |
| 20260507192815 | 57 | 74 | 4.0 | 8.0 | 0.00 | 0.00 | 0.00 | 70 | 1017.3 |
| 20260507192345 | 57 | 72 | 4.0 | 9.0 | 0.00 | 0.00 | 0.00 | 70 | 1017.2 |
| 20260507191313 | 57 | 62 | 4.0 | 9.0 | 0.00 | 0.00 | 0.00 | 70 | 1017.2 |
| 20260507190818 | 57 | 53 | 4.0 | 10.0 | 0.00 | 0.00 | 0.00 | 69 | 1017.2 |
| 20260507190317 | 57 | 75 | 4.0 | 10.0 | 0.00 | 0.00 | 0.00 | 69 | 1017.2 |
| 20260507185816 | 57 | 75 | 4.0 | 7.0 | 0.00 | 0.00 | 0.00 | 70 | 1017.2 |
| 20260507185313 | 57 | 66 | 4.0 | 8.0 | 0.00 | 0.00 | 0.00 | 70 | 1017.2 |
| 20260507184843 | 57 | 60 | 3.0 | 8.0 | 0.00 | 0.00 | 0.00 | 70 | 1017.2 |
| 20260507183812 | 58 | 48 | 3.0 | 4.0 | 0.00 | 0.00 | 0.00 | 69 | 1017.2 |
| 20260507183313 | 58 | 62 | 2.0 | 3.0 | 0.00 | 0.00 | 0.00 | 69 | 1017.1 |
| 20260507182859 | 58 | 67 | 2.0 | 4.0 | 0.00 | 0.00 | 0.00 | 69 | 1017.1 |
| 20260507181808 | 58 | 75 | 2.0 | 6.0 | 0.00 | 0.00 | 0.00 | 68 | 1017.1 |
| 20260507181308 | 58 | 79 | 3.0 | 7.0 | 0.00 | 0.00 | 0.00 | 66 | 1017.0 |
| 20260507180807 | 58 | 70 | 3.0 | 7.0 | 0.00 | 0.00 | 0.00 | 67 | 1017.1 |
| 20260507180306 | 58 | 79 | 2.0 | 6.0 | 0.00 | 0.00 | 0.00 | 66 | 1017.1 |
| 20260507175810 | 58 | 78 | 2.0 | 4.0 | 0.00 | 0.00 | 0.00 | 66 | 1017.0 |
| 20260507175340 | 58 | 78 | 2.0 | 4.0 | 0.00 | 0.00 | 0.00 | 65 | 1016.9 |
| 20260507174305 | 58 | 76 | 2.0 | 3.0 | 0.00 | 0.00 | 0.00 | 65 | 1016.9 |
| 20260507173803 | 58 | 69 | 2.0 | 3.0 | 0.00 | 0.00 | 0.00 | 66 | 1017.0 |
| 20260507173306 | 58 | 67 | 2.0 | 4.0 | 0.00 | 0.00 | 0.00 | 66 | 1017.0 |
| 20260507172800 | 58 | 68 | 2.0 | 4.0 | 0.00 | 0.00 | 0.00 | 64 | 1016.9 |
| 20260507172301 | 59 | 44 | 1.0 | 2.0 | 0.00 | 0.00 | 0.00 | 66 | 1017.0 |
| 20260507171758 | 59 | 31 | 2.0 | 3.0 | 0.00 | 0.00 | 0.00 | 67 | 1017.0 |
| 20260507171257 | 59 | 35 | 2.0 | 4.0 | 0.00 | 0.00 | 0.00 | 64 | 1017.0 |
| 20260507170837 | 59 | 45 | 2.0 | 4.0 | 0.00 | 0.00 | 0.00 | 62 | 1017.0 |
| 20260507165819 | 59 | 39 | 3.0 | 5.0 | 0.00 | 0.00 | 0.00 | 63 | 1017.0 |
| 20260507164758 | 59 | 39 | 2.0 | 4.0 | 0.00 | 0.00 | 0.00 | 62 | 1016.9 |
| 20260507164257 | 59 | 41 | 3.0 | 4.0 | 0.00 | 0.00 | 0.00 | 62 | 1016.9 |
| 20260507163751 | 59 | 36 | 4.0 | 8.0 | 0.00 | 0.00 | 0.00 | 61 | 1016.9 |
| 20260507163250 | 59 | 31 | 4.0 | 8.0 | 0.00 | 0.00 | 0.00 | 62 | 1016.9 |
| 20260507162754 | 59 | 29 | 3.0 | 6.0 | 0.00 | 0.00 | 0.00 | 62 | 1016.9 |
| 20260507162252 | 60 | 65 | 3.0 | 6.0 | 0.00 | 0.00 | 0.00 | 60 | 1016.9 |
| 20260507161753 | 60 | 57 | 3.0 | 6.0 | 0.00 | 0.00 | 0.00 | 60 | 1016.9 |
| 20260507161253 | 60 | 79 | 2.0 | 6.0 | 0.00 | 0.00 | 0.00 | 60 | 1016.9 |
| 20260507160818 | 60 | 81 | 3.0 | 6.0 | 0.00 | 0.00 | 0.00 | 62 | 1016.9 |
| 20260507155753 | 60 | 23 | 4.0 | 7.0 | 0.00 | 0.00 | 0.00 | 61 | 1016.9 |
| 20260507155315 | 60 | 39 | 3.0 | 8.0 | 0.00 | 0.00 | 0.00 | 61 | 1016.8 |
| 20260507154249 | 60 | 114 | 1.0 | 3.0 | 0.00 | 0.00 | 0.00 | 60 | 1016.8 |
| 20260507153746 | 60 | 66 | 2.0 | 4.0 | 0.00 | 0.00 | 0.00 | 58 | 1016.9 |
| 20260507153246 | 60 | 30 | 2.0 | 4.0 | 0.00 | 0.00 | 0.00 | 57 | 1016.8 |
| 20260507152748 | 60 | 70 | 2.0 | 8.0 | 0.00 | 0.00 | 0.00 | 59 | 1016.7 |
| 20260507152244 | 60 | 138 | 3.0 | 8.0 | 0.00 | 0.00 | 0.00 | 58 | 1016.8 |
| 20260507151743 | 60 | 115 | 2.0 | 7.0 | 0.00 | 0.00 | 0.00 | 60 | 1016.7 |
| 20260507151322 | 60 | 78 | 2.0 | 4.0 | 0.00 | 0.00 | 0.00 | 59 | 1016.8 |
| 20260507150244 | 60 | 69 | 4.0 | 7.0 | 0.00 | 0.00 | 0.00 | 59 | 1016.8 |
| 20260507145743 | 60 | 63 | 5.0 | 10.0 | 0.00 | 0.00 | 0.00 | 58 | 1016.7 |
| 20260507145241 | 60 | 75 | 5.0 | 10.0 | 0.00 | 0.00 | 0.00 | 59 | 1016.8 |
| 20260507144809 | 60 | 72 | 5.0 | 8.0 | 0.00 | 0.00 | 0.00 | 60 | 1016.7 |
| 20260507143734 | 60 | 60 | 5.0 | 9.0 | 0.00 | 0.00 | 0.00 | 59 | 1016.8 |
| 20260507143308 | 60 | 78 | 5.0 | 9.0 | 0.00 | 0.00 | 0.00 | 60 | 1016.8 |
| 20260507142234 | 60 | 73 | 3.0 | 7.0 | 0.00 | 0.00 | 0.00 | 60 | 1016.8 |
| 20260507141732 | 60 | 48 | 4.0 | 8.0 | 0.00 | 0.00 | 0.00 | 59 | 1016.8 |
| 20260507141230 | 60 | 83 | 3.0 | 8.0 | 0.00 | 0.00 | 0.00 | 58 | 1016.8 |
| 20260507140758 | 61 | 39 | 3.0 | 10.0 | 0.00 | 0.00 | 0.00 | 56 | 1016.8 |
| 20260507135731 | 61 | 47 | 4.0 | 10.0 | 0.00 | 0.00 | 0.00 | 54 | 1016.9 |
| 20260507135339 | 62 | 32 | 4.0 | 10.0 | 0.00 | 0.00 | 0.00 | 51 | 1016.9 |
| 20260507133813 | 62 | 339 | 4.0 | 10.0 | 0.00 | 0.00 | 0.00 | 52 | 1017.0 |
| 20260507132753 | 61 | 260 | 4.0 | 10.0 | 0.00 | 0.00 | 0.00 | 47 | 1016.9 |
| 20260507131726 | 62 | 4 | 6.0 | 11.0 | 0.00 | 0.00 | 0.00 | 54 | 1016.9 |
| 20260507131221 | 62 | 12 | 4.0 | 10.0 | 0.00 | 0.00 | 0.00 | 53 | 1016.8 |
| 20260507130731 | 60 | 75 | 3.0 | 7.0 | 0.00 | 0.00 | 0.00 | 57 | 1016.8 |
| 20260507130252 | 59 | 73 | 3.0 | 8.0 | 0.00 | 0.00 | 0.00 | 59 | 1016.8 |
| 20260507125257 | 60 | 10 | 3.0 | 9.0 | 0.00 | 0.00 | 0.00 | 55 | 1016.9 |
| 20260507124225 | 60 | 15 | 5.0 | 11.0 | 0.00 | 0.00 | 0.00 | 55 | 1016.9 |
| 20260507123733 | 61 | 21 | 4.0 | 11.0 | 0.00 | 0.00 | 0.00 | 59 | 1016.9 |
| 20260507123228 | 60 | 29 | 4.0 | 9.0 | 0.00 | 0.00 | 0.00 | 54 | 1016.8 |
| 20260507122725 | 59 | 38 | 6.0 | 11.0 | 0.00 | 0.00 | 0.00 | 56 | 1016.9 |
| 20260507122223 | 60 | 15 | 6.0 | 13.0 | 0.00 | 0.00 | 0.00 | 57 | 1016.9 |
| 20260507121723 | 61 | 45 | 5.0 | 13.0 | 0.00 | 0.00 | 0.00 | 60 | 1016.9 |
| 20260507121219 | 61 | 325 | 4.0 | 11.0 | 0.00 | 0.00 | 0.00 | 62 | 1016.9 |
| 20260507120732 | 61 | 342 | 3.0 | 7.0 | 0.00 | 0.00 | 0.00 | 66 | 1016.9 |
| 20260507120221 | 59 | 67 | 3.0 | 8.0 | 0.00 | 0.00 | 0.00 | 58 | 1016.9 |
| 20260507115716 | 59 | 19 | 4.0 | 9.0 | 0.00 | 0.00 | 0.00 | 62 | 1017.0 |
| 20260507115218 | 60 | 82 | 4.0 | 9.0 | 0.00 | 0.00 | 0.00 | 60 | 1017.0 |
| 20260507114715 | 61 | 355 | 4.0 | 9.0 | 0.00 | 0.00 | 0.00 | 62 | 1017.0 |
| 20260507114217 | 60 | 52 | 4.0 | 9.0 | 0.00 | 0.00 | 0.00 | 62 | 1017.0 |
| 20260507113719 | 60 | 49 | 4.0 | 9.0 | 0.00 | 0.00 | 0.00 | 61 | 1017.1 |
| 20260507113250 | 61 | 58 | 6.0 | 11.0 | 0.00 | 0.00 | 0.00 | 62 | 1017.0 |
| 20260507112211 | 60 | 339 | 4.0 | 12.0 | 0.00 | 0.00 | 0.00 | 67 | 1017.0 |
| 20260507111712 | 60 | 29 | 4.0 | 11.0 | 0.00 | 0.00 | 0.00 | 67 | 1017.1 |
| 20260507111210 | 60 | 38 | 5.0 | 11.0 | 0.00 | 0.00 | 0.00 | 63 | 1017.1 |
| 20260507110714 | 61 | 32 | 4.0 | 10.0 | 0.00 | 0.00 | 0.00 | 68 | 1017.2 |
| 20260507110211 | 61 | 8 | 3.0 | 9.0 | 0.00 | 0.00 | 0.00 | 67 | 1017.2 |
| 20260507105712 | 60 | 97 | 3.0 | 11.0 | 0.00 | 0.00 | 0.00 | 66 | 1017.2 |
| 20260507105210 | 61 | 17 | 4.0 | 11.0 | 0.00 | 0.00 | 0.00 | 69 | 1017.3 |
| 20260507104710 | 60 | 66 | 6.0 | 13.0 | 0.00 | 0.00 | 0.00 | 67 | 1017.3 |
| 20260507104213 | 60 | 16 | 5.0 | 13.0 | 0.00 | 0.00 | 0.00 | 68 | 1017.3 |
| 20260507103714 | 60 | 312 | 3.0 | 12.0 | 0.00 | 0.00 | 0.00 | 69 | 1017.2 |
| 20260507103213 | 60 | 55 | 4.0 | 10.0 | 0.00 | 0.00 | 0.00 | 69 | 1017.3 |
| 20260507102710 | 59 | 54 | 4.0 | 10.0 | 0.00 | 0.00 | 0.00 | 67 | 1017.3 |
| 20260507102203 | 59 | 325 | 4.0 | 8.0 | 0.00 | 0.00 | 0.00 | 70 | 1017.2 |
| 20260507101704 | 59 | 12 | 4.0 | 10.0 | 0.00 | 0.00 | 0.00 | 71 | 1017.2 |
| 20260507101205 | 58 | 1 | 5.0 | 10.0 | 0.00 | 0.00 | 0.00 | 67 | 1017.2 |
| 20260507100741 | 58 | 27 | 4.0 | 10.0 | 0.00 | 0.00 | 0.00 | 68 | 1017.3 |
| 20260507095712 | 58 | 12 | 4.0 | 10.0 | 0.00 | 0.00 | 0.00 | 69 | 1017.2 |
| 20260507095224 | 58 | 44 | 5.0 | 11.0 | 0.00 | 0.00 | 0.00 | 71 | 1017.1 |
| 20260507094201 | 58 | 339 | 6.0 | 13.0 | 0.00 | 0.00 | 0.00 | 69 | 1017.2 |
| 20260507093703 | 58 | 31 | 4.0 | 10.0 | 0.00 | 0.00 | 0.00 | 73 | 1017.1 |
| 20260507093304 | 57 | 32 | 4.0 | 9.0 | 0.00 | 0.00 | 0.00 | 72 | 1017.1 |
| 20260507091703 | 57 | 37 | 5.0 | 10.0 | 0.00 | 0.00 | 0.00 | 73 | 1017.1 |
| 20260507091202 | 56 | 330 | 4.0 | 9.0 | 0.00 | 0.00 | 0.00 | 75 | 1017.1 |
| 20260507090702 | 56 | 330 | 3.0 | 9.0 | 0.00 | 0.00 | 0.00 | 75 | 1017.0 |
| 20260507090201 | 56 | 339 | 4.0 | 9.0 | 0.00 | 0.00 | 0.00 | 75 | 1017.1 |
| 20260507085704 | 56 | 339 | 5.0 | 10.0 | 0.00 | 0.00 | 0.00 | 75 | 1016.9 |
| 20260507085202 | 56 | 348 | 5.0 | 11.0 | 0.00 | 0.00 | 0.00 | 76 | 1017.0 |
| 20260507084701 | 56 | 316 | 5.0 | 13.0 | 0.00 | 0.00 | 0.00 | 75 | 1017.0 |
| 20260507084202 | 56 | 325 | 5.0 | 13.0 | 0.00 | 0.00 | 0.00 | 76 | 1017.0 |
| 20260507083802 | 55 | 26 | 4.0 | 10.0 | 0.00 | 0.00 | 0.00 | 76 | 1016.9 |
| 20260507082703 | 55 | 31 | 5.0 | 10.0 | 0.00 | 0.00 | 0.00 | 77 | 1017.0 |
| 20260507082230 | 55 | 335 | 6.0 | 10.0 | 0.00 | 0.00 | 0.00 | 76 | 1017.0 |
| 20260507081201 | 55 | 318 | 5.0 | 8.0 | 0.00 | 0.00 | 0.00 | 78 | 1017.0 |
| 20260507080752 | 55 | 12 | 5.0 | 10.0 | 0.00 | 0.00 | 0.00 | 79 | 1017.0 |
| 20260507075701 | 54 | 4 | 4.0 | 8.0 | 0.00 | 0.00 | 0.00 | 80 | 1016.9 |
| 20260507075200 | 54 | 19 | 4.0 | 8.0 | 0.00 | 0.00 | 0.00 | 81 | 1016.9 |
| 20260507074703 | 53 | 17 | 4.0 | 9.0 | 0.00 | 0.00 | 0.00 | 82 | 1016.9 |
| 20260507074202 | 53 | 287 | 4.0 | 9.0 | 0.00 | 0.00 | 0.00 | 83 | 1016.8 |
| 20260507073702 | 53 | 1 | 5.0 | 10.0 | 0.00 | 0.00 | 0.00 | 84 | 1016.8 |
| 20260507073201 | 53 | 18 | 4.0 | 10.0 | 0.00 | 0.00 | 0.00 | 85 | 1016.8 |
| 20260507072729 | 52 | 22 | 4.0 | 9.0 | 0.00 | 0.00 | 0.00 | 86 | 1016.8 |
| 20260507071702 | 52 | 343 | 4.0 | 9.0 | 0.00 | 0.00 | 0.00 | 87 | 1016.7 |
| 20260507071203 | 51 | 325 | 4.0 | 9.0 | 0.00 | 0.00 | 0.00 | 87 | 1016.7 |
| 20260507070822 | 51 | 33 | 3.0 | 7.0 | 0.00 | 0.00 | 0.00 | 88 | 1016.7 |
| 20260507070503 | 51 | 352 | 3.0 | 6.0 | 0.00 | 0.00 | 0.00 | 88 | 1016.7 |
| 20260507063703 | 50 | 325 | 5.0 | 8.0 | 0.00 | 0.00 | 0.00 | 90 | 1016.4 |
| 20260507063205 | 49 | 330 | 6.0 | 9.0 | 0.00 | 0.00 | 0.00 | 90 | 1016.4 |
| 20260507062702 | 49 | 319 | 5.0 | 9.0 | 0.00 | 0.00 | 0.00 | 90 | 1016.5 |
| 20260507062237 | 49 | 343 | 3.0 | 8.0 | 0.00 | 0.00 | 0.00 | 91 | 1016.5 |
| 20260507061202 | 48 | 330 | 5.0 | 9.0 | 0.00 | 0.00 | 0.00 | 92 | 1016.4 |
| 20260507060729 | 48 | 358 | 5.0 | 9.0 | 0.00 | 0.00 | 0.00 | 92 | 1016.3 |
| 20260507055701 | 47 | 352 | 4.0 | 9.0 | 0.00 | 0.00 | 0.00 | 93 | 1016.3 |
| 20260507055236 | 47 | 345 | 4.0 | 9.0 | 0.00 | 0.00 | 0.00 | 93 | 1016.2 |
| 20260507054201 | 46 | 320 | 3.0 | 7.0 | 0.00 | 0.00 | 0.00 | 94 | 1016.1 |
| 20260507053703 | 46 | 320 | 3.0 | 5.0 | 0.00 | 0.00 | 0.00 | 94 | 1016.1 |
| 20260507053201 | 46 | 330 | 3.0 | 6.0 | 0.00 | 0.00 | 0.00 | 94 | 1016.1 |
| 20260507052728 | 45 | 6 | 3.0 | 6.0 | 0.00 | 0.00 | 0.00 | 94 | 1016.1 |
| 20260507051700 | 45 | 352 | 3.0 | 6.0 | 0.00 | 0.00 | 0.00 | 94 | 1016.0 |
| 20260507051240 | 45 | 350 | 3.0 | 5.0 | 0.00 | 0.00 | 0.00 | 94 | 1015.9 |
| 20260507050203 | 45 | 319 | 3.0 | 7.0 | 0.00 | 0.00 | 0.00 | 94 | 1015.7 |
| 20260507045701 | 45 | 340 | 3.0 | 7.0 | 0.00 | 0.00 | 0.00 | 94 | 1015.7 |
| 20260507045202 | 45 | 325 | 3.0 | 5.0 | 0.00 | 0.00 | 0.00 | 94 | 1015.6 |
| 20260507044703 | 45 | 330 | 3.0 | 5.0 | 0.00 | 0.00 | 0.00 | 94 | 1015.6 |
| 20260507044203 | 45 | 335 | 3.0 | 5.0 | 0.00 | 0.00 | 0.00 | 94 | 1015.5 |
| 20260507043703 | 44 | 305 | 3.0 | 5.0 | 0.00 | 0.00 | 0.00 | 94 | 1015.5 |
| 20260507043203 | 44 | 330 | 3.0 | 5.0 | 0.00 | 0.00 | 0.00 | 94 | 1015.5 |
| 20260507042728 | 44 | 320 | 3.0 | 5.0 | 0.00 | 0.00 | 0.00 | 94 | 1015.5 |
| 20260507041705 | 44 | 325 | 2.0 | 4.0 | 0.00 | 0.00 | 0.00 | 93 | 1015.4 |
| 20260507041204 | 44 | 342 | 3.0 | 5.0 | 0.00 | 0.00 | 0.00 | 93 | 1015.4 |
| 20260507040703 | 44 | 335 | 3.0 | 5.0 | 0.00 | 0.00 | 0.00 | 93 | 1015.2 |
| 20260507040200 | 44 | 315 | 3.0 | 4.0 | 0.00 | 0.00 | 0.00 | 93 | 1015.3 |
| 20260507035703 | 44 | 6 | 3.0 | 4.0 | 0.00 | 0.00 | 0.00 | 93 | 1015.3 |
| 20260507035202 | 45 | 347 | 3.0 | 4.0 | 0.00 | 0.01 | 0.00 | 93 | 1015.3 |
| 20260507034659 | 45 | 321 | 3.0 | 4.0 | 0.00 | 0.01 | 0.00 | 93 | 1015.2 |
| 20260507034156 | 45 | 335 | 3.0 | 6.0 | 0.00 | 0.01 | 0.00 | 92 | 1015.2 |
| 20260507033656 | 45 | 325 | 3.0 | 6.0 | 0.00 | 0.01 | 0.00 | 92 | 1015.2 |
| 20260507033152 | 45 | 346 | 3.0 | 6.0 | 0.00 | 0.01 | 0.00 | 92 | 1015.2 |
| 20260507032653 | 45 | 330 | 3.0 | 6.0 | 0.00 | 0.01 | 0.00 | 92 | 1015.1 |
| 20260507032225 | 46 | 335 | 4.0 | 8.0 | 0.00 | 0.01 | 0.00 | 92 | 1015.1 |
| 20260507031148 | 46 | 319 | 3.0 | 5.0 | 0.00 | 0.01 | 0.00 | 91 | 1015.1 |
| 20260507030647 | 46 | 330 | 2.0 | 4.0 | 0.00 | 0.01 | 0.00 | 91 | 1015.1 |
| 20260507030143 | 46 | 339 | 3.0 | 5.0 | 0.00 | 0.01 | 0.00 | 91 | 1015.0 |
| 20260507025752 | 46 | 347 | 3.0 | 5.0 | 0.00 | 0.01 | 0.00 | 91 | 1014.9 |
| 20260507024141 | 46 | 335 | 3.0 | 5.0 | 0.00 | 0.01 | 0.00 | 89 | 1014.9 |
| 20260507023716 | 46 | 325 | 3.0 | 6.0 | 0.00 | 0.01 | 0.00 | 89 | 1014.9 |
| 20260507022638 | 46 | 341 | 4.0 | 7.0 | 0.00 | 0.01 | 0.00 | 89 | 1014.9 |
| 20260507022139 | 47 | 319 | 4.0 | 7.0 | 0.00 | 0.01 | 0.00 | 89 | 1014.9 |
| 20260507021706 | 47 | 347 | 4.0 | 8.0 | 0.00 | 0.01 | 0.00 | 88 | 1014.8 |
| 20260507020713 | 47 | 330 | 4.0 | 10.0 | 0.00 | 0.01 | 0.00 | 89 | 1014.7 |
| 20260507015637 | 47 | 16 | 5.0 | 9.0 | 0.00 | 0.01 | 0.00 | 90 | 1014.7 |
| 20260507015139 | 47 | 345 | 4.0 | 9.0 | 0.00 | 0.01 | 0.00 | 90 | 1014.6 |
| 20260507014637 | 47 | 0 | 4.0 | 9.0 | 0.00 | 0.01 | 0.00 | 90 | 1014.7 |
| 20260507014137 | 47 | 339 | 5.0 | 10.0 | 0.00 | 0.01 | 0.00 | 90 | 1014.6 |
| 20260507013634 | 47 | 353 | 5.0 | 10.0 | 0.00 | 0.01 | 0.00 | 91 | 1014.6 |
| 20260507013139 | 47 | 347 | 4.0 | 8.0 | 0.00 | 0.01 | 0.00 | 91 | 1014.6 |